#timestamp,LO_Frequency 
1423123215.1,286078800.1
1423123235.0,286078800.7
1423123235.9,286078800.7
1423123255.8,286078798.8
1423123275.7,286078802.4
1423123295.6,286078797.1
1423123315.4,286078795.2
1423123335.3,286078792.0
1423123355.2,286078794.2
1423123375.1,286078796.2
1423123376.0,286078796.2
1423123395.8,286078797.6
1423123415.7,286078796.4
1423123435.6,286078793.8
1423123455.5,286078797.9
1423123475.3,286078794.3
1423123495.2,286078795.4
1423123515.1,286078795.8
1423123516.0,286078795.8
1423123535.9,286078800.6
1423123555.7,286078795.6
1423123575.6,286078803.9
1423123595.5,286078800.0
1423123615.4,286078803.9
1423123635.2,286078802.1
1423123655.1,286078802.1
1423123675.9,286078804.9
1423123695.8,286078803.9
1423123715.6,286078804.4
1423123735.5,286078803.1
1423123755.4,286078800.5
1423123775.2,286078801.8
1423123795.1,286078802.8
1423123815.9,286078801.0
1423123835.8,286078801.3
1423123855.6,286078798.7
1423123875.5,286078802.3
1423123895.4,286078801.2
1423123915.3,286078800.8
1423123935.1,286078802.9
1423123955.0,286078800.7
1423123955.9,286078800.7
1423123975.8,286078801.3
1423123995.7,286078801.5
1423124015.5,286078799.1
1423124035.4,286078802.5
1423124055.3,286078802.3
1423124075.2,286078801.1
1423124095.0,286078801.2
1423124095.9,286078801.2
1423124115.8,286078799.5
1423124135.7,286078798.6
1423124155.6,286078802.4
1423124175.4,286078800.3
1423124195.3,286078800.2
1423124215.2,286078800.0
1423124235.1,286078802.3
1423124236.0,286078802.3
1423124255.8,286078799.9
1423124275.7,286078801.3
1423124295.6,286078800.9
1423124315.5,286078798.8
1423124335.3,286078802.6
1423124355.2,286078801.2
1423124375.1,286078798.9
1423124376.0,286078798.9
1423124395.9,286078803.7
1423124415.7,286078801.2
1423124435.6,286078798.8
1423124455.5,286078801.5
1423124475.4,286078798.3
1423124495.2,286078792.0
1423124515.1,286078794.7
1423124535.9,286078793.3
1423124555.8,286078794.7
1423124575.6,286078794.4
1423124595.5,286078794.0
1423124615.4,286078795.7
1423124635.3,286078795.2
1423124655.1,286078799.8
1423124675.0,286078797.8
1423124675.9,286078797.8
1423124695.8,286078796.7
1423124715.7,286078796.2
1423124735.5,286078798.0
1423124755.4,286078801.8
1423124775.3,286078803.7
1423124795.1,286078804.4
1423124815.0,286078802.3
1423124815.9,286078802.3
1423124835.8,286078800.4
1423124855.7,286078801.0
1423124875.6,286078800.5
1423124895.4,286078802.8
1423124915.3,286078802.8
1423124935.2,286078800.7
1423124955.0,286078800.3
1423124956.0,286078800.3
1423124975.8,286078800.2
1423124995.7,286078800.0
1423125015.6,286078804.1
1423125035.5,286078801.0
1423125055.3,286078800.5
1423125075.2,286078802.9
1423125095.1,286078800.9
1423125096.0,286078800.9
1423125115.9,286078802.6
1423125135.7,286078802.6
1423125155.6,286078798.5
1423125175.5,286078804.4
1423125195.4,286078801.0
1423125215.2,286078800.7
1423125235.1,286078800.5
1423125255.9,286078800.0
1423125275.8,286078802.1
1423125295.6,286078800.4
1423125315.5,286078802.6
1423125335.4,286078799.8
1423125355.3,286078798.6
1423125375.1,286078802.4
1423125395.9,286078800.9
1423125415.8,286078801.0
1423125435.6,286078800.8
1423125455.5,286078801.2
1423125475.4,286078799.7
1423125495.3,286078801.0
1423125515.1,286078802.4
1423125535.0,286078800.4
1423125535.9,286078800.4
1423125555.8,286078798.9
1423125575.7,286078797.5
1423125595.5,286078792.3
1423125615.4,286078794.3
1423125635.3,286078793.6
1423125655.2,286078793.8
1423125675.0,286078796.7
1423125675.9,286078796.7
1423125695.8,286078796.9
1423125715.7,286078798.2
1423125735.6,286078794.5
1423125755.4,286078793.9
1423125775.3,286078795.3
1423125795.2,286078798.1
1423125815.1,286078796.9
1423125816.0,286078796.9
1423125835.8,286078807.2
1423125855.7,286078802.0
1423125875.6,286078804.5
1423125895.5,286078801.8
1423125915.3,286078802.0
1423125935.2,286078804.4
1423125955.1,286078802.2
1423125956.0,286078802.2
1423125975.9,286078800.2
1423125995.7,286078802.5
1423126015.6,286078802.8
1423126035.5,286078801.2
1423126055.4,286078802.9
1423126075.2,286078801.1
1423126095.1,286078800.7
1423126115.9,286078802.2
1423126135.8,286078802.6
1423126155.6,286078800.7
1423126175.5,286078803.1
1423126195.4,286078799.1
1423126215.3,286078800.0
1423126235.1,286078802.7
1423126255.0,286078799.9
1423126255.9,286078799.9
1423126275.8,286078799.2
1423126295.7,286078804.2
1423126315.5,286078802.7
1423126335.4,286078798.6
1423126355.3,286078798.8
1423126375.2,286078800.5
1423126395.0,286078802.8
1423126395.9,286078802.8
1423126415.8,286078797.9
1423126435.7,286078798.5
1423126455.6,286078804.2
1423126475.4,286078798.5
1423126495.3,286078802.9
1423126515.2,286078801.2
1423126535.0,286078800.0
1423126536.0,286078800.0
1423126555.8,286078801.7
1423126575.7,286078801.8
1423126595.6,286078798.8
1423126615.5,286078800.5
1423126635.3,286078799.0
1423126655.2,286078795.0
1423126675.1,286078790.8
1423126676.0,286078790.8
1423126695.9,286078804.0
1423126715.7,286078793.9
1423126735.6,286078796.2
1423126755.5,286078793.7
1423126775.4,286078795.2
1423126795.2,286078795.9
